TimeCST,TemperatureF,Dew PointF,Humidity,Sea Level PressureIn,VisibilityMPH,Wind Direction,Wind SpeedMPH,Gust SpeedMPH,PrecipitationIn,Events,Conditions,WindDirDegrees,DateUTC
12:15 AM,26.6,19.4,74,30.23,10.0,SW,6.9,-,N/A,,Clear,220,2013-01-05 06:15:00
12:35 AM,26.6,19.4,74,30.23,10.0,SW,6.9,-,N/A,,Clear,220,2013-01-05 06:35:00
12:55 AM,26.6,19.4,74,30.23,10.0,SSW,6.9,-,N/A,,Clear,210,2013-01-05 06:55:00
1:15 AM,26.6,19.4,74,30.23,10.0,SSW,6.9,-,N/A,,Clear,210,2013-01-05 07:15:00
1:35 AM,26.6,19.4,74,30.23,10.0,SSW,5.8,-,N/A,,Clear,210,2013-01-05 07:35:00
1:55 AM,26.6,19.4,74,30.22,10.0,SSW,4.6,-,N/A,,Clear,210,2013-01-05 07:55:00
2:15 AM,26.6,19.4,74,30.22,10.0,SSW,5.8,-,N/A,,Clear,210,2013-01-05 08:15:00
2:35 AM,26.6,19.4,74,30.22,10.0,SSW,6.9,-,N/A,,Clear,200,2013-01-05 08:35:00
2:55 AM,26.6,19.4,74,30.23,10.0,SSW,6.9,-,N/A,,Clear,210,2013-01-05 08:55:00
3:15 AM,26.6,19.4,74,30.22,10.0,SSW,6.9,-,N/A,,Clear,210,2013-01-05 09:15:00
3:35 AM,26.6,19.4,74,30.22,10.0,SSW,6.9,-,N/A,,Clear,210,2013-01-05 09:35:00
3:55 AM,24.8,17.6,74,30.21,10.0,SSW,4.6,-,N/A,,Clear,210,2013-01-05 09:55:00
4:15 AM,24.8,17.6,74,30.20,10.0,SSW,5.8,-,N/A,,Clear,210,2013-01-05 10:15:00
4:35 AM,24.8,17.6,74,30.20,10.0,SSW,5.8,-,N/A,,Clear,210,2013-01-05 10:35:00
4:55 AM,24.8,17.6,74,30.19,10.0,SSW,4.6,-,N/A,,Clear,210,2013-01-05 10:55:00
5:15 AM,26.6,19.4,74,30.19,10.0,SSW,5.8,-,N/A,,Clear,200,2013-01-05 11:15:00
5:35 AM,26.6,19.4,74,30.19,10.0,SSW,4.6,-,N/A,,Clear,210,2013-01-05 11:35:00
5:55 AM,26.6,19.4,74,30.19,10.0,SSW,6.9,-,N/A,,Clear,210,2013-01-05 11:55:00
6:15 AM,26.6,19.4,74,30.19,10.0,SSW,5.8,-,N/A,,Clear,200,2013-01-05 12:15:00
6:35 AM,26.6,19.4,74,30.19,10.0,SSW,5.8,-,N/A,,Clear,200,2013-01-05 12:35:00
6:55 AM,28.4,21.2,74,30.19,10.0,SSW,9.2,-,N/A,,Clear,210,2013-01-05 12:55:00
7:15 AM,28.4,19.4,69,30.21,10.0,SSW,11.5,-,N/A,,Clear,210,2013-01-05 13:15:00
7:35 AM,26.6,19.4,74,30.20,10.0,SW,8.1,-,N/A,,Clear,220,2013-01-05 13:35:00
7:55 AM,26.6,19.4,74,30.20,10.0,SSW,6.9,-,N/A,,Clear,200,2013-01-05 13:55:00
8:15 AM,28.4,21.2,74,30.20,10.0,SSW,6.9,-,N/A,,Clear,210,2013-01-05 14:15:00
8:35 AM,30.2,21.2,69,30.21,10.0,SSW,9.2,-,N/A,,Clear,210,2013-01-05 14:35:00
8:55 AM,30.2,21.2,69,30.21,10.0,SSW,8.1,-,N/A,,Clear,210,2013-01-05 14:55:00
9:15 AM,30.2,23.0,75,30.21,10.0,SSW,9.2,-,N/A,,Clear,210,2013-01-05 15:15:00
9:55 AM,33.8,26.6,75,30.22,3.0,SW,13.8,18.4,N/A,Snow,Light Snow,220,2013-01-05 15:55:00
10:15 AM,33.8,26.6,75,30.22,10.0,SSW,9.2,-,N/A,,Mostly Cloudy,210,2013-01-05 16:15:00
10:55 AM,33.8,26.6,75,30.20,3.0,South,6.9,-,N/A,Snow,Light Snow,170,2013-01-05 16:55:00
11:15 AM,35.6,28.4,75,30.18,7.0,SSW,6.9,-,N/A,Rain,Light Rain,200,2013-01-05 17:15:00
11:35 AM,37.4,30.2,75,30.15,10.0,SSW,8.1,-,N/A,,Overcast,200,2013-01-05 17:35:00
11:55 AM,37.4,28.4,70,30.14,10.0,SW,8.1,-,N/A,,Overcast,220,2013-01-05 17:55:00
12:15 PM,37.4,30.2,75,30.11,10.0,SSW,10.4,-,N/A,,Overcast,210,2013-01-05 18:15:00
12:35 PM,37.4,30.2,75,30.10,10.0,SSW,12.7,-,N/A,,Overcast,200,2013-01-05 18:35:00
12:55 PM,39.2,30.2,70,30.09,10.0,SSW,10.4,-,N/A,,Overcast,210,2013-01-05 18:55:00
1:15 PM,37.4,30.2,75,30.07,10.0,South,10.4,-,N/A,,Overcast,190,2013-01-05 19:15:00
1:35 PM,37.4,30.2,75,30.06,10.0,SSW,9.2,-,N/A,,Overcast,200,2013-01-05 19:35:00
1:55 PM,37.4,30.2,75,30.06,10.0,SW,11.5,-,N/A,,Mostly Cloudy,220,2013-01-05 19:55:00
2:15 PM,37.4,30.2,75,30.06,10.0,SW,13.8,19.6,N/A,,Overcast,220,2013-01-05 20:15:00
2:35 PM,37.4,30.2,75,30.05,10.0,SSW,13.8,20.7,N/A,,Overcast,210,2013-01-05 20:35:00
2:55 PM,37.4,30.2,75,30.05,10.0,SSW,12.7,20.7,N/A,,Overcast,210,2013-01-05 20:55:00
3:15 PM,37.4,30.2,75,30.05,10.0,SSW,10.4,-,N/A,,Overcast,210,2013-01-05 21:15:00
3:35 PM,37.4,30.2,75,30.05,10.0,SW,12.7,18.4,N/A,,Drizzle,220,2013-01-05 21:35:00
3:55 PM,37.4,30.2,75,30.04,10.0,SSW,12.7,19.6,N/A,,Overcast,200,2013-01-05 21:55:00
4:15 PM,37.4,30.2,75,30.05,10.0,SW,11.5,19.6,N/A,,Overcast,220,2013-01-05 22:15:00
4:55 PM,37.4,30.2,75,30.05,10.0,SSW,11.5,-,N/A,,Overcast,210,2013-01-05 22:55:00
5:15 PM,37.4,30.2,75,30.06,10.0,SSW,11.5,-,N/A,,Overcast,210,2013-01-05 23:15:00
5:35 PM,37.4,30.2,75,30.06,10.0,SSW,9.2,-,N/A,,Overcast,210,2013-01-05 23:35:00
5:55 PM,37.4,30.2,75,30.05,10.0,SSW,9.2,-,N/A,,Overcast,200,2013-01-05 23:55:00
6:15 PM,37.4,30.2,75,30.05,10.0,SSW,11.5,-,N/A,,Overcast,210,2013-01-06 00:15:00
6:35 PM,37.4,30.2,75,30.04,10.0,South,11.5,-,N/A,,Overcast,190,2013-01-06 00:35:00
6:55 PM,35.6,30.2,81,30.05,10.0,SSW,9.2,-,N/A,,Overcast,200,2013-01-06 00:55:00
7:15 PM,35.6,30.2,81,30.05,10.0,SSW,10.4,-,N/A,,Overcast,200,2013-01-06 01:15:00
7:55 PM,35.6,30.2,81,30.05,10.0,SSW,9.2,-,N/A,,Overcast,210,2013-01-06 01:55:00
8:15 PM,35.6,30.2,81,30.04,10.0,SSW,10.4,-,N/A,,Overcast,210,2013-01-06 02:15:00
8:35 PM,37.4,30.2,75,30.03,10.0,SSW,10.4,-,N/A,,Overcast,210,2013-01-06 02:35:00
8:55 PM,37.4,30.2,75,30.03,10.0,SSW,10.4,-,N/A,,Overcast,210,2013-01-06 02:55:00
9:15 PM,37.4,30.2,75,30.03,10.0,SW,10.4,-,N/A,,Overcast,220,2013-01-06 03:15:00
9:35 PM,37.4,30.2,75,30.03,10.0,SW,10.4,-,N/A,,Overcast,220,2013-01-06 03:35:00
9:55 PM,37.4,30.2,75,30.02,10.0,SW,11.5,16.1,N/A,,Overcast,220,2013-01-06 03:55:00
10:15 PM,37.4,30.2,75,30.02,10.0,SW,11.5,-,N/A,,Overcast,230,2013-01-06 04:15:00
10:35 PM,37.4,30.2,75,30.02,10.0,WSW,10.4,-,N/A,,Overcast,250,2013-01-06 04:35:00
10:55 PM,37.4,30.2,75,30.03,10.0,WNW,20.7,26.5,N/A,,Overcast,290,2013-01-06 04:55:00
11:15 PM,35.6,26.6,70,30.04,10.0,West,12.7,23.0,N/A,,Mostly Cloudy,280,2013-01-06 05:15:00
11:35 PM,33.8,24.8,70,30.05,10.0,West,11.5,20.7,N/A,,Scattered Clouds,280,2013-01-06 05:35:00
11:55 PM,32.0,23.0,69,30.05,10.0,West,12.7,-,N/A,,Clear,280,2013-01-06 05:55:00